Weather History for Roanoke, VA

Change the Weather History Date:

Sunday, December 2, 2012

  Actual Average Record
Temperature  
Mean Temperature 51 °F 42 °F  
Max Temperature 67 °F 52 °F 70 °F (1970)
Min Temperature 35 °F 33 °F 19 °F (1947)
Degree Days  
Heating Degree Days 14 23  
Month to date heating degree days 32 45  
Since 1 July heating degree days 919 849  
Cooling Degree Days 0 0  
Month to date cooling degree days 0 0  
Year to date cooling degree days 1423 1208  
Moisture  
Dew Point 40 °F    
Average Humidity 67    
Maximum Humidity 89    
Minimum Humidity 45    
Precipitation  
Precipitation T in 0.11 in 1.73 in (1986)
Month to date precipitation T 0.21  
Year to date precipitation 30.33 38.52  
Snow  
Snow 0.00 in - - ()
Month to date snowfall 0.0  
Since 1 July snowfall T  
Snow Depth 0.00 in    
Sea Level Pressure  
Sea Level Pressure 30.30 in    
Wind  
Wind Speed 3 mph (SSW)    
Max Wind Speed 13 mph    
Max Gust Speed 16 mph    
Visibility 10 miles    
Events      
T = Trace of Precipitation, MM = Missing Value Source: NWS Daily Summary

Daily Weather History Graph

Daily Weather History Graph

Search for Another Location

Airport:

Trip Planner

Search our weather history database for the weather conditions in past years. The results will help you decide how hot, cold, wet, or windy it might be!

Date:

Astronomy

Dec. 02, 2012 Rise Set
Actual Time 7:16 AM EST 5:02 PM EST
Civil Twilight 6:47 AM EST 5:31 PM EST
Nautical Twilight 6:15 AM EST 6:03 PM EST
Astronomical Twilight 5:44 AM EST 6:34 PM EST
Moon 8:46 PM EST (12/2) 10:07 AM EST (12/2)
Length of Visible Light 10h 43m
Length of Day
9h 45m
Waning Gibbous, 86% of the Moon is Illuminated
Dec 2
Waning Gibbous
Dec 6
Last Quarter
Dec 13
New
Dec 20
First Quarter
Dec 28
Full

Hourly Weather History & Observations

Time (EST) Temp. Dew Point Humidity Pressure Visibility Wind Dir Wind Speed Gust Speed Precip Events Conditions
12:54 AM 44.1 °F 34.0 °F 68% 30.39 in 10.0 mi Calm Calm - N/A   Clear
1:54 AM 44.1 °F 34.0 °F 68% 30.38 in 10.0 mi Calm Calm - N/A   Clear
2:54 AM 41.0 °F 34.0 °F 76% 30.38 in 10.0 mi Calm Calm - N/A   Clear
3:54 AM 37.9 °F 33.1 °F 83% 30.37 in 10.0 mi Calm Calm - N/A   Clear
4:54 AM 37.0 °F 32.0 °F 82% 30.37 in 9.0 mi Calm Calm - N/A   Clear
5:54 AM 37.9 °F 33.1 °F 83% 30.37 in 9.0 mi Calm Calm - N/A   Clear
6:54 AM 36.0 °F 32.0 °F 86% 30.38 in 9.0 mi Calm Calm - N/A   Clear
7:54 AM 37.0 °F 32.0 °F 82% 30.38 in 8.0 mi Calm Calm - N/A   Clear
8:54 AM 37.9 °F 34.0 °F 86% 30.38 in 9.0 mi Calm Calm - N/A   Clear
9:54 AM 44.1 °F 36.0 °F 73% 30.38 in 8.0 mi Calm Calm - N/A   Clear
10:54 AM 50.0 °F 37.9 °F 63% 30.35 in 10.0 mi Calm Calm - N/A   Clear
11:54 AM 55.0 °F 41.0 °F 59% 30.30 in 10.0 mi SW 3.5 mph - N/A   Clear
12:54 PM 60.1 °F 43.0 °F 53% 30.25 in 10.0 mi Calm Calm - N/A   Clear
1:54 PM 64.0 °F 44.1 °F 48% 30.22 in 10.0 mi SSE 4.6 mph - N/A   Partly Cloudy
2:54 PM 66.9 °F 44.1 °F 44% 30.20 in 10.0 mi South 5.8 mph - N/A   Partly Cloudy
3:54 PM 66.0 °F 45.0 °F 47% 30.20 in 10.0 mi SSE 6.9 mph - N/A   Partly Cloudy
4:54 PM 64.0 °F 45.0 °F 50% 30.20 in 10.0 mi SSE 9.2 mph - N/A   Mostly Cloudy
5:54 PM 62.1 °F 45.0 °F 53% 30.22 in 10.0 mi SSW 3.5 mph - N/A   Scattered Clouds
6:54 PM 61.0 °F 45.0 °F 56% 30.22 in 10.0 mi SW 4.6 mph - N/A   Scattered Clouds
7:54 PM 60.1 °F 45.0 °F 57% 30.22 in 10.0 mi WSW 3.5 mph - N/A   Mostly Cloudy
8:54 PM 61.0 °F 45.0 °F 56% 30.23 in 10.0 mi West 6.9 mph - N/A   Mostly Cloudy
9:54 PM 62.1 °F 46.0 °F 56% 30.23 in 10.0 mi SW 5.8 mph - 0.00 in   Mostly Cloudy
10:54 PM 61.0 °F 46.9 °F 60% 30.23 in 10.0 mi SW 5.8 mph - 0.00 in   Overcast
11:54 PM 60.1 °F 46.0 °F 60% 30.24 in 10.0 mi West 5.8 mph - N/A   Scattered Clouds